Regional Weather Roundup
Issued by NWS Kansas City/Pleasant Hill, MO

Home | Current Version | Previous Version | Text Only | Print | Product List | Glossary On
Versions: 1 2 3 4 5 6 7 8 9 10 11 12 13 14 15 16 17 18 19 20 21 22 23 24 25 26 27 28 29 30 31 32 33 34 35 36 37 38 39 40 41 42 43 44 45 46 47 48 49 50
000
ASUS43 KEAX 020410
RWREAX

WEATHER ROUNDUP FOR EASTERN KANSAS AND NORTHWEST MISSOURI
NATIONAL WEATHER SERVICE KANSAS CITY/PLEASANT HILL MO
1100 PM CDT SAT AUG 01 2015

KSZ040-057-103>105-MOZ028-029-037-043-020500-
...KANSAS CITY METROPOLITAN AREA...

CITY           SKY/WX    TMP DP  RH WIND       PRES   REMARKS
K.C. INTL      MOCLDY    74  61  63 SE8       29.98R
K.C. DOWNTOWN  PTCLDY    75  61  61 E6        29.97R
LEES SUMMIT    CLEAR     74  60  61 CALM      29.99R
OLATHE - IXD   CLEAR     72  65  78 SE8       29.99R
OLATHE - OJC   CLEAR     70  64  81 S6        29.98R
LAWRENCE       CLEAR     73  66  78 SE7       29.98R

$$

MOZ001>008-011>017-020>025-030>033-038>040-044>046-053-054-020500-
...NORTHERN AND CENTRAL MISSOURI...

CITY           SKY/WX    TMP DP  RH WIND       PRES   REMARKS
ST. JOSEPH     MOCLDY    74  63  68 SE6       29.97R
MOSBY          MOCLDY    72  63  73 CALM      29.99R
WARRENSBURG    PTCLDY    70  63  78 S5        29.98R
WHITEMAN AFB   MOCLDY    69  67  92 S9        29.97R
CLINTON        CLEAR     70  66  88 CALM      29.99R
SEDALIA        PTCLDY    71  65  81 S3        30.00R
WARSAW         NOT AVBL
CHILLICOTHE      N/A     70  60  70 S3        29.97F
KIRKSVILLE     PTCLDY    68  62  81 CALM      29.96F

$$

MOZ041-047>049-056>058-063>065-088>090-097-020500-
...EASTERN AND SOUTHERN MISSOURI...

CITY           SKY/WX    TMP DP  RH WIND       PRES   REMARKS
ST. LOUIS INTL MOCLDY    84  68  58 S6        29.98S
SPIRIT OF STL  PTCLDY    78  71  79 S3        29.96S
COLUMBIA       MOCLDY    71  68  90 NE5       29.99R
JEFFERSON CITY MOCLDY    72  67  84 E3        29.98R
ROLLA          PTCLDY    71  69  93 SE8       29.99S
OSAGE BEACH    PTCLDY    72  66  83 CALM      29.99S
SPRINGFIELD    CLEAR     76  65  68 CALM      30.00S
BRANSON        CLEAR     75  66  73 CALM      30.04R
JOPLIN         CLEAR     75  67  76 CALM      30.01R
WEST PLAINS    CLEAR     72  68  87 CALM      30.03R

$$

IAZ060-094-KSZ022-034>040-054-083-096-NEZ052-066-093-020500-
...KANSAS...SOUTHEAST NEBRASKA AND IOWA...

CITY           SKY/WX    TMP DP  RH WIND       PRES   REMARKS
TOPEKA         CLEAR     79  69  71 SE13      29.96R
MANHATTAN      CLEAR     77  68  73 SW6       29.94R
EMPORIA        CLEAR     77  70  79 S8        29.98R
CHANUTE        CLEAR     74  68  81 S6        29.99R
WICHITA        MOCLDY    80  71  74 S9        29.99R
OMAHA          PTCLDY    78  72  81 S8        29.91R
LINCOLN        MOCLDY    77  68  73 CALM      29.93R
FALLS CITY     MOCLDY    74  68  81 SE12      29.95R
LAMONI         CLEAR     71  66  84 SW8       29.96S
DES MOINES     PTCLDY    77  70  79 S5        29.91R

$$



USA.gov is the U.S. government's official web portal to all federal, state and local government web resources and services.